This is the latest recevied weather packets stored in our database for station/object OE3FJB-25. If no packets are shown the sender has not sent any weather packets the latest 1 day(s).
| Time | Temp. | Humidity | Pressure | Rain* | Wind** | Luminosity | Snow |
|---|---|---|---|---|---|---|---|
| 1778054354 | 17.22° C | 99% | 1012.1 hPa | - | - | - | - |
| 1778053157 | 16.67° C | 99% | 1012 hPa | - | - | - | - |
| 1778052558 | 16.11° C | 99% | 1012 hPa | - | - | - | - |
| 1778051960 | 16.11° C | 99% | 1012.1 hPa | - | - | - | - |
| 1778051361 | 16.67° C | 99% | 1012.3 hPa | - | - | - | - |
| 1778050762 | 14.44° C | 99% | 1012.3 hPa | - | - | - | - |
| 1778050164 | 14.44° C | 99% | 1012.3 hPa | - | - | - | - |
| 1778049565 | 14.44° C | 99% | 1012.2 hPa | - | - | - | - |
| 1778048368 | 13.89° C | 99% | 1012 hPa | - | - | - | - |
| 1778046572 | 12.78° C | 99% | 1012.1 hPa | - | - | - | - |
| 1778045973 | 12.78° C | 99% | 1012 hPa | - | - | - | - |
| 1778045374 | 12.22° C | 99% | 1012 hPa | - | - | - | - |
| 1778044776 | 12.22° C | 99% | 1011.9 hPa | - | - | - | - |
| 1778044177 | 11.67° C | 99% | 1012 hPa | - | - | - | - |
| 1778042980 | 10.56° C | 99% | 1012.3 hPa | - | - | - | - |
| 1778042381 | 10.56° C | 99% | 1012.3 hPa | - | - | - | - |
| 1778041184 | 10.56° C | 99% | 1012.4 hPa | - | - | - | - |
| 1778040585 | 10° C | 99% | 1012.2 hPa | - | - | - | - |
| 1778038787 | 10° C | 99% | 1011.7 hPa | - | - | - | - |
| 1778038188 | 10° C | 99% | 1011.6 hPa | - | - | - | - |
| 1778037589 | 10° C | 99% | 1011.6 hPa | - | - | - | - |
| 1778036991 | 10.56° C | 99% | 1011.8 hPa | - | - | - | - |
| 1778036392 | 10° C | 99% | 1011.8 hPa | - | - | - | - |
| 1778035794 | 10° C | 99% | 1011.6 hPa | - | - | - | - |
| 1778035195 | 10° C | 99% | 1011.7 hPa | - | - | - | - |
* Rain since midnight (hover to see other rain measurements)
** Current wind speed in m/s (hover to see current wind gust speed)